Location: Napier
(39.4830°S, 176.9170°E)
Time: 00:45:22
(UTC+13:00)

USA 186 - Pass Details

Date: 24 January 2019
Orbit: 262 x 443 km, 96.9° (Epoch: 04 October)

Event Time Altitude Azimuth Distance (km) Brightness Sun altitude
Rises 21:24:09 0° 164° (SSE) 2,252 5.7 -8.9°
Reaches altitude 10° 21:26:12 10° 159° (SSE) 1,363 4.5 -9.2°
Maximum altitude 21:29:02 52° 81° (E) 443 1.5 -9.7°
Drops below altitude 10° 21:31:40 10° 2° (N) 1,258 3.8 -10.1°
Enters shadow 21:32:28 - 359° (N) 1,606 4.4 -10.2°
